Location: Newark
(51.2625°N, 13.3939°E)
Time: 15:16:06
(UTC+00:00)

Tiros 1 - Visible Passes

Search period start: 20 November 2019 00:00
Search period end: 30 November 2019 00:00
Orbit: 630 x 664 km, 48.4° (Epoch: 19 November)

Date Brightness Start Highest point End Pass type
(mag) Time Alt. Az. Time Alt. Az. Time Alt. Az.
20 Nov 7.5 15:47:03 10° W 15:51:38 62° S 15:56:14 10° ESE visible
20 Nov 8.1 17:29:08 10° W 17:33:30 40° SSW 17:35:11 29° SSE visible
20 Nov 10.0 19:12:15 10° WSW 19:12:52 12° WSW 19:12:52 12° WSW visible
21 Nov 7.7 16:13:03 10° W 16:17:36 55° S 16:22:09 10° ESE visible
21 Nov 8.8 17:55:22 10° W 17:59:16 27° SSW 18:00:25 24° S visible
22 Nov 8.2 16:39:07 10° W 16:43:29 42° SSW 16:47:53 10° SE visible
22 Nov 9.5 18:22:06 10° WSW 18:24:53 16° SW 18:25:46 15° SSW visible
23 Nov 8.9 17:05:19 10° W 17:09:16 28° SSW 17:13:13 10° SSE visible
24 Nov 8.3 15:49:06 10° W 15:53:29 43° SSW 15:57:53 10° SE visible
24 Nov 9.7 17:31:58 10° WSW 17:34:53 17° SW 17:37:49 10° S visible
25 Nov 9.0 16:15:17 10° W 16:19:17 29° SSW 16:23:17 10° SSE visible
26 Nov 9.8 16:41:51 10° W 16:44:55 18° SW 16:48:00 10° S visible
28 Nov 9.9 15:51:45 10° W 15:54:56 19° SW 15:58:09 10° S visible
